Regional Weather Roundup
Issued by NWS

Home | Current Version | Previous Version | Text Only | Print | Product List | Glossary Off
Versions: 1 2 3 4 5 6 7 8 9 10 11 12 13 14 15 16 17 18 19 20 21 22 23 24 25 26 27 28 29 30 31 32 33 34 35 36 37 38 39 40 41 42 43 44 45 46 47 48 49 50

000
ASUS43 KDMX 260307
RWRIA

WEATHER ROUNDUP FOR IOWA
NATIONAL WEATHER SERVICE DES MOINES IA
1000 PM CDT MON MAY 25 2015

NOTE: "FAIR" INDICATES FEW OR NO CLOUDS BELOW 12,000 FEET WITH NO
SIGNIFICANT WEATHER AND/OR OBSTRUCTIONS TO VISIBILITY.

* - THESE STATIONS ARE NOT NWS STATIONS...THUS NOT UNDER NWS
QUALITY CONTROL.  THEY ALSO DO NOT REPORT WEATHER SUCH
AS PRECIPITATION OR FOG.

IAZ001>003-012>014-020>022-031>034-043>046-260400-
   NORTHWEST IOWA

CITY           SKY/WX    TMP DP  RH WIND       PRES   REMARKS
CARROLL *      CLOUDY    61  57  88 NE8G14    29.83R
CHEROKEE *     MOCLDY    64  61  88 CALM      29.77R
DENISON *      CLOUDY    64  64 100 SW10      29.79R
LE MARS *      CLEAR     66  61  82 NE5       29.77R
ORANGE CITY *  CLEAR     64  61  88 NE5       29.77R
SHELDON *      CLEAR     64  63  94 NE7       29.76R
SIOUX CITY     MOCLDY    68  58  70 N9        29.74R
SPENCER        MOCLDY    64  60  87 N8        29.78R
STORM LAKE *   MOCLDY    66  59  77 S18       29.80R
$$

IAZ055>058-069>071-079>083-090>094-260400-
   SOUTHWEST IOWA

CITY           SKY/WX    TMP DP  RH WIND       PRES   REMARKS
ATLANTIC *     MOCLDY    66  54  63 S14G22    29.79R
AUDUBON *      CLEAR     68  57  68 SW3       29.83R
COUNCIL BLFS * CLEAR     64  64 100 SW8G15    29.82R
CRESTON *      CLOUDY    63  61  94 SW8G14    29.87F
HARLAN  *      CLEAR     64  63  94 SW12      29.84R
LAMONI         LGT RAIN  65  58  78 W10       29.90R
RED OAK *      CLOUDY    64  57  77 SE10      29.80F
SHENANDOAH *   PTCLDY    63  61  94 SE9       29.82F
$$

IAZ047>049-059>061-072>074-084-260400-
   CENTRAL IOWA

CITY           SKY/WX    TMP DP  RH WIND       PRES   REMARKS
AMES           CLOUDY    71  64  78 S7        29.81S
ANKENY *       MOCLDY    73  64  73 SW23      29.82R
CHARITON *     CLOUDY    68  57  68 W29G35    29.90R
DES MOINES     TSTM      65  59  81 SW20G30   29.86R
GRINNELL*      CLOUDY    70  64  83 S10       29.86R
KNOXVILLE *    PTCLDY    72  64  78 S12       29.84R
MARSHALLTOWN   CLOUDY    72  64  76 S12       29.82R
PELLA *        CLOUDY    70  68  94 SE7       29.86R
PERRY *          N/A     70  57  64 S15G21    29.83R
$$

IAZ004>006-015-016-023>025-035-036-260400-
   NORTH CENTRAL IOWA

CITY           SKY/WX    TMP DP  RH WIND       PRES   REMARKS
ALGONA *       CLEAR     68 -36   1 S13       29.79R
CLARION *      CLOUDY    68  66  94 SW14      29.81R
ESTHERVILLE    MOCLDY    64  59  83 N5        29.78R
FORT DODGE *   CLOUDY    63  54  72 SE3       29.81R
MASON CITY     CLOUDY    68  57  68 S22G28    29.82R
FOREST CITY *  CLEAR     64  61  88 S16G22    29.80R
IOWA FALLS *   MOCLDY    68  61  77 CALM      29.84R
$$

IAZ007>011-017>019-026>030-037>042-050>054-066-260400-
   NORTHEAST IOWA

CITY           SKY/WX    TMP DP  RH WIND       PRES   REMARKS
CEDAR RAPIDS   PTCLDY    70  65  84 S7        29.86R
CHARLES CITY * RAIN      70  66  88 S12       29.83R
CLINTON *      PTCLDY    68  61  77 S10       29.93R
DECORAH *      CLEAR     70  63  78 S8G14     29.83R
DUBUQUE        PTCLDY    67  61  81 S12       29.88R
MONTICELLO *   CLEAR     70  66  88 S9        29.86R
OELWEIN *      PTCLDY    68  64  88 S14       29.85R
WATERLOO       CLOUDY    71  63  75 S12       29.82R
$$

IAZ064-065-067-068-078-260400-
   EAST CENTRAL IOWA

CITY           SKY/WX    TMP DP  RH WIND       PRES   REMARKS
DAVENPORT      PTCLDY    71  61  70 S12       29.90R
IOWA CITY      CLEAR     70  64  81 SE7       29.89R
MT. PLEASANT * PTCLDY    68  64  88 SE6       29.90R
MUSCATINE *    CLEAR     72  64  78 S7        29.89R
QUAD CITIES    PTCLDY    69  61  75 S7        29.90R
$$

IAZ062-063-075>077-085>089-095>099-260400-
   SOUTHEAST IOWA

CITY           SKY/WX    TMP DP  RH WIND       PRES   REMARKS
BURLINGTON     CLEAR     69  64  84 SE7       29.90R
FAIRFIELD *    CLEAR     72  64  78 S9        29.88R
FORT MADISON * CLEAR     70  64  83 SE5       29.91R
KEOKUK *       CLEAR     72  64  78 SE6       29.89R
OSKALOOSA *      N/A     70  64  83 S12       29.87R
CENTERVILLE *  CLEAR     68  68 100 SE8       29.89R
OTTUMWA        MOCLDY    71  65  81 S9        29.87R
WASHINGTON *   CLEAR     70  66  88 S9        29.90R
$$

ABBREVIATIONS USED IN REMARKS
   TC - TEMPERATURES IN CELSIUS
  WCI - WIND CHILL INDEX
   HX - HEAT INDEX
  VSB - VISIBILITY
$$



USA.gov is the U.S. government's official web portal to all federal, state and local government web resources and services.